Temperature
23 23 22 23 26 27 27 30 33 33 34 34 34 33 31 30 29 26 26 25 23 23 23 22 22 21 21 20 20 20 20 19 19 19 19 19 19 19 19 19 19 19 19 19 18 19 19 19 19
23 23 24 26 28 27 26 29 31 33 34 34 33 32 30 29 28 27 26 24 23 23 23 22 22 21 21 20 20 20 20 19 19 19 19 19 19 19 19 19 19 19 18 19 19 19 19 19 19
23 24 27 30 30 28 28 30 31 33 34 34 33 31 29 28 28 27 25 24 23 22 22 22 22 21 21 20 20 20 20 20 19 19 19 19 19 19 19 19 19 19 19 19 19 19 19 19 19
23 26 28 30 30 32 32 32 33 34 34 33 32 29 27 27 27 26 25 24 23 21 22 22 22 21 21 20 20 20 20 19 19 19 19 19 19 19 19 19 19 19 19 19 19 19 19 19 19
25 28 30 31 31 33 33 33 33 33 33 32 31 28 26 26 26 25 25 24 23 22 22 22 22 21 20 20 20 20 20 19 19 19 19 19 19 19 19 19 19 19 19 19 19 19 19 19 19
27 30 30 31 32 33 33 33 33 33 32 30 29 27 25 25 25 25 25 25 23 22 22 22 21 21 20 20 20 20 19 19 19 19 19 19 19 19 19 19 19 19 19 19 19 19 19 19 19
28 30 31 32 32 33 34 33 33 32 31 30 28 25 24 25 25 25 25 25 23 22 21 22 21 21 20 20 20 20 19 19 19 19 19 19 19 19 19 19 19 19 19 19 19 19 19 19 19
29 30 31 32 33 33 34 33 32 32 30 29 28 26 24 24 25 25 25 24 23 22 21 21 20 20 20 20 20 20 19 19 19 19 19 19 19 19 19 19 19 19 19 19 19 19 19 19 19
29 30 30 32 33 33 33 33 32 31 29 28 27 26 24 25 25 25 24 24 22 21 21 20 20 20 19 19 19 19 19 19 19 19 19 19 19 18 18 18 18 18 18 19 19 19 19 19 19
30 30 31 33 33 33 32 32 31 31 30 28 27 24 24 24 24 24 24 23 22 21 21 20 20 19 19 19 19 19 19 19 19 19 19 19 19 18 18 18 18 18 18 18 18 18 18 18 19
31 31 32 32 32 32 32 31 30 30 28 26 25 24 24 24 24 24 24 23 22 21 21 20 20 19 19 19 19 19 19 19 18 18 18 18 18 18 18 18 18 18 18 18 18 18 18 18 18
31 32 32 32 32 31 31 30 29 28 26 25 24 24 24 24 23 23 22 22 21 21 20 20 19 19 19 19 19 19 19 18 18 18 18 18 18 18 18 18 18 18 18 18 18 18 18 18 18
32 32 32 31 31 31 30 29 28 26 26 25 24 24 23 23 23 22 22 21 21 20 20 19 19 19 19 19 19 19 18 18 18 18 18 18 18 18 18 18 18 18 17 17 17 17 17 17 18
32 32 31 31 31 30 29 27 26 25 25 24 24 23 23 22 22 22 21 21 20 20 19 19 19 19 19 19 19 19 18 18 18 18 18 17 17 17 17 17 17 17 17 17 17 17 17 17 17
31 31 30 30 29 28 28 26 25 25 24 24 24 23 22 21 21 21 21 20 20 20 19 19 19 19 19 18 18 18 18 18 18 18 17 17 17 17 17 17 17 17 17 17 17 17 17 17 17
30 29 28 28 28 27 28 24 24 24 24 24 23 22 21 21 21 21 20 20 19 19 19 19 19 19 18 18 18 18 18 17 17 17 17 17 17 17 17 17 17 17 17 16 17 17 17 17 17
29 28 27 27 28 28 27 25 24 24 24 23 22 22 21 20 20 20 20 19 19 19 19 19 18 18 18 18 18 18 18 17 17 17 17 17 16 16 16 16 16 16 16 16 16 16 16 16 16
28 29 28 27 28 27 27 25 25 24 25 24 23 22 21 20 20 20 20 19 19 18 18 18 18 18 18 18 18 17 17 17 17 17 17 16 16 16 16 16 16 16 16 15 15 16 16 16 16
30 29 28 27 27 27 27 26 26 25 25 24 23 22 21 20 20 20 19 19 18 18 18 18 18 18 18 18 17 17 17 17 17 17 16 16 16 15 16 15 15 15 15 15 15 15 15 15 15
30 28 27 27 28 28 27 26 26 25 24 24 23 22 21 20 20 19 19 19 18 18 18 18 18 18 17 17 17 17 17 17 17 17 16 16 15 15 15 15 15 15 15 15 15 15 15 15 15
30 29 28 28 29 28 26 25 24 24 24 24 24 23 22 21 20 20 19 19 19 18 18 18 18 18 17 17 17 17 17 17 17 16 16 16 15 15 14 14 14 14 14 14 14 14 14 14 14
29 30 29 28 27 26 26 23 23 24 24 24 24 23 22 22 21 20 20 19 19 19 18 18 18 17 17 17 17 17 16 16 16 16 16 15 15 14 14 14 14 13 13 13 13 14 14 14 14
30 30 28 27 25 24 24 24 24 24 24 24 24 24 23 22 21 21 20 20 20 19 19 18 18 17 17 16 16 16 16 16 16 15 15 15 15 14 14 14 13 13 13 13 13 13 13 13 13
31 29 27 24 22 21 23 23 23 24 25 25 25 24 23 23 22 21 21 20 20 20 19 18 18 17 16 16 16 15 15 15 15 15 14 14 14 14 14 14 13 13 13 12 13 12 13 13 13
30 27 24 22 20 21 24 25 24 26 27 26 26 25 24 23 23 22 21 21 20 20 19 18 18 17 16 16 15 15 14 14 14 14 14 14 14 14 14 13 13 13 12 12 12 12 12 12 12
30 28 26 24 24 24 25 25 25 27 27 27 26 25 24 23 23 22 22 21 21 20 19 18 17 17 16 15 15 14 14 14 14 14 14 13 13 13 13 12 12 12 12 12 12 12 12 12 12
30 29 30 28 27 25 25 25 26 27 27 27 26 25 25 24 23 23 22 21 21 20 19 18 17 16 16 15 15 14 14 14 13 13 13 13 12 12 12 12 12 12 11 11 11 11 11 11 11
31 31 30 28 26 24 24 25 25 26 27 27 27 26 25 25 24 23 22 22 21 20 19 18 17 16 16 15 14 15 14 13 13 13 12 12 12 12 12 12 11 11 11 11 11 11 11 11 11
29 29 29 29 28 25 22 24 27 27 27 27 27 27 26 25 24 23 23 21 21 20 19 18 17 16 15 15 14 14 13 13 13 12 12 12 12 11 11 11 11 11 11 11 11 11 11 10 11
29 29 29 27 27 27 26 25 28 28 28 28 28 27 26 25 25 24 22 21 20 20 19 18 17 16 16 15 14 14 13 13 12 12 12 11 11 11 11 11 10 10 10 10 10 10 10 10 10
Wind_Speed
10 13 11 8 6 5 7 7 7 8 8 8 8 10 16 15 11 11 12 20 24 22 20 20 18 16 15 14 13 13 13 13 13 12 12 11 11 11 11 10 9 9 10 10 10 10 10 10 10
11 14 10 7 7 6 2 4 9 7 5 4 6 11 16 15 15 15 16 21 24 21 19 19 18 17 16 14 14 13 13 13 12 12 11 11 10 10 10 9 8 8 9 9 9 9 9 9 9
14 17 9 8 11 7 1 2 6 6 4 3 5 10 10 11 13 14 17 21 22 20 20 20 19 17 16 15 14 13 13 12 12 12 11 10 10 9 9 8 7 7 8 8 8 8 8 8 7
9 10 8 10 13 8 1 2 5 5 3 3 6 10 9 8 12 16 18 21 21 21 20 20 19 17 16 15 14 13 13 12 11 11 10 10 9 8 8 7 7 7 7 7 7 7 7 6 6
11 9 12 15 15 7 2 4 7 6 4 6 7 12 12 9 16 18 18 19 20 21 20 20 19 17 15 14 13 12 12 11 11 10 9 9 8 7 7 6 6 6 6 6 6 6 6 5 4
9 11 14 14 10 6 3 3 6 6 5 5 5 12 8 10 14 16 17 16 21 21 20 19 18 17 15 14 13 12 11 11 10 9 9 8 7 7 6 6 5 5 5 5 6 6 6 6 4
12 13 16 17 12 9 3 2 5 5 5 6 6 8 5 8 12 14 14 15 20 20 19 16 16 15 14 13 12 11 10 10 9 8 8 7 6 6 6 6 6 5 5 5 5 6 6 6 6
11 12 17 15 11 7 3 3 4 5 4 4 4 6 9 10 12 14 13 16 18 18 17 15 15 14 13 12 11 10 10 9 9 8 7 7 7 7 8 8 8 7 6 6 6 6 7 7 7
11 12 13 12 10 7 6 5 5 2 2 4 9 11 14 13 12 13 12 14 15 15 13 14 13 12 12 12 12 11 10 9 9 8 8 8 8 8 9 10 11 10 8 8 8 8 8 8 10
9 11 11 9 10 9 9 9 8 5 4 6 10 13 14 13 13 12 11 14 14 13 12 11 11 10 9 9 12 10 10 10 8 7 9 8 6 5 5 8 11 11 10 9 10 10 10 10 10
9 10 11 11 9 9 9 8 7 5 5 6 7 10 8 11 12 11 10 11 12 10 10 10 9 6 5 5 7 4 5 7 7 6 7 5 3 3 1 4 8 9 9 8 9 10 9 9 9
9 9 9 10 9 9 8 7 5 6 6 7 7 8 8 9 9 11 10 10 10 10 9 9 9 7 4 4 3 2 3 3 3 3 3 2 0 1 1 1 1 4 5 5 4 5 7 7 7
10 9 9 8 8 7 5 5 4 4 5 8 9 8 7 8 9 10 10 10 9 8 9 9 8 6 5 4 1 3 2 1 3 3 2 2 1 1 1 1 2 3 4 3 2 3 3 4 5
10 10 10 9 8 5 2 4 3 3 3 6 8 8 9 10 9 10 10 10 8 8 9 8 8 7 5 4 2 2 2 3 4 4 4 2 0 1 1 1 1 3 4 4 4 4 4 4 4
11 12 10 8 9 6 2 3 3 3 4 6 8 9 9 9 9 10 10 10 10 9 9 7 7 7 6 4 2 2 3 4 3 3 3 2 1 0 1 2 2 2 4 4 4 5 4 5 6
13 12 9 8 6 7 4 2 2 3 5 8 10 10 10 9 8 10 10 9 10 10 8 6 8 8 7 5 4 2 3 3 2 3 4 4 2 2 2 1 0 2 4 3 3 3 3 3 3
10 9 7 6 4 6 3 2 5 1 4 8 10 10 11 9 8 10 10 11 11 9 8 8 8 7 6 5 3 3 2 1 1 3 4 3 2 3 3 2 1 3 3 3 4 1 2 3 4
9 8 3 3 2 4 1 3 8 7 6 9 9 10 10 10 8 9 10 11 10 9 8 7 7 5 4 4 2 2 2 1 1 3 4 3 2 3 3 2 1 2 3 2 2 3 3 4 5
9 8 7 4 5 5 1 2 5 5 5 9 9 9 9 9 9 9 10 11 10 8 7 7 6 4 2 2 2 1 1 0 1 2 4 3 1 2 2 2 3 2 2 3 4 3 5 5 4
7 6 6 5 7 5 1 2 2 3 4 6 9 10 11 11 10 8 9 9 9 7 7 7 6 4 2 3 1 1 1 1 1 3 3 2 1 1 3 2 3 3 3 4 4 4 3 5 4
9 6 6 7 4 1 1 0 2 5 4 5 7 9 11 12 12 10 10 9 8 8 7 6 5 4 3 2 0 2 1 2 1 1 2 2 1 1 2 3 3 4 5 4 4 4 4 4 5
9 5 6 7 6 4 4 2 3 7 6 6 7 8 9 10 11 10 10 9 9 8 8 8 6 4 3 1 2 3 2 2 3 2 2 2 2 2 3 3 3 3 4 5 6 4 4 4 4
7 5 7 8 7 4 4 2 5 9 8 9 10 10 10 10 10 10 9 8 8 8 8 8 7 4 2 1 2 3 4 4 4 4 4 3 3 3 3 2 1 2 3 5 5 6 5 5 5
6 5 6 7 5 4 6 3 4 6 9 11 11 11 11 11 11 10 9 9 8 8 8 8 8 5 3 1 1 2 4 4 5 5 5 4 3 2 2 1 2 3 3 5 5 6 7 6 6
6 6 3 2 2 5 7 2 5 7 8 11 12 13 13 12 11 11 10 9 8 7 7 7 8 5 3 2 0 2 3 4 5 4 4 5 4 3 5 5 4 4 4 5 6 6 6 7 7
7 7 6 5 4 3 4 3 6 7 8 10 11 12 12 12 11 11 11 10 9 8 7 7 7 5 3 2 1 1 1 3 3 5 5 5 5 4 5 5 4 5 5 7 6 6 7 6 6
7 8 8 7 6 4 2 7 9 9 9 10 12 12 12 12 11 11 10 9 8 8 7 7 7 5 3 1 1 2 1 1 3 4 4 4 5 6 6 7 6 6 6 6 6 6 7 7 7
8 8 6 6 4 3 3 3 7 11 10 10 12 12 12 11 11 11 9 9 8 7 7 6 6 5 3 1 1 1 1 1 1 3 4 4 5 5 6 6 6 7 7 7 6 6 7 7 7
7 7 5 6 5 2 0 1 6 9 9 10 12 13 12 11 11 10 10 9 8 8 8 7 6 5 4 2 1 1 2 2 2 3 3 4 5 5 6 7 7 7 7 7 6 7 8 8 8
10 8 6 5 6 4 1 2 6 7 9 9 10 12 12 11 11 11 11 10 8 7 7 6 5 4 3 3 2 2 2 2 3 4 4 4 5 5 6 6 7 7 8 7 7 8 8 8 8
Wind_Direction
225 238 238 254 253 248 297 325 12 21 24 36 41 63 64 59 70 102 125 118 116 120 126 126 123 122 123 125 127 130 131 129 127 126 124 120 116 112 109 105 102 98 93 90 89 88 87 89 90
243 245 246 249 250 262 258 320 341 7 13 34 67 74 79 71 86 112 117 116 118 123 130 127 125 123 123 124 125 128 129 130 130 129 128 127 124 120 116 114 110 105 99 95 93 91 90 92 93
256 259 262 256 256 262 210 359 323 325 2 18 69 72 71 85 93 110 120 123 121 124 125 126 129 126 125 125 125 127 129 130 132 132 132 131 129 127 123 121 119 113 105 100 98 97 96 96 96
254 250 244 258 273 280 320 348 306 320 355 14 88 88 79 72 103 117 129 126 126 127 126 129 130 129 128 128 128 129 131 131 132 132 134 135 135 133 131 131 127 121 115 113 111 107 106 105 104
251 263 256 262 269 284 336 349 321 323 351 358 71 96 92 89 108 125 132 130 129 125 126 131 131 130 131 131 132 133 135 136 137 138 140 143 144 146 146 141 135 134 131 128 129 127 125 122 122
259 260 267 274 281 286 291 331 317 338 347 4 68 104 100 118 124 133 130 132 127 125 125 130 132 134 134 136 138 139 141 142 144 146 148 150 153 155 155 154 155 155 151 148 147 147 149 149 153
264 281 282 285 289 284 290 344 316 339 344 355 29 91 112 121 130 125 128 126 120 121 126 135 137 138 139 141 143 143 147 150 153 156 158 162 166 173 177 175 175 172 169 169 169 169 169 173 179
267 284 284 285 285 292 328 336 320 327 15 3 16 100 137 142 134 129 128 115 115 120 129 135 141 144 149 151 153 154 160 163 164 168 173 181 194 201 202 197 190 186 186 190 191 192 192 192 197
262 266 277 296 313 329 343 320 306 15 70 61 56 93 134 138 138 135 131 119 115 116 123 133 138 149 158 158 158 166 174 177 179 184 192 200 212 209 205 216 191 192 195 201 205 208 207 206 210
251 266 287 313 323 329 327 323 318 319 6 73 86 95 125 143 142 136 136 129 122 122 128 132 137 151 161 156 154 179 180 175 192 189 193 207 228 232 210 187 190 200 205 211 214 216 217 219 222
262 276 301 309 322 318 309 323 335 329 20 32 88 108 130 137 129 126 126 122 120 125 127 124 124 116 121 126 152 165 155 156 192 187 190 208 245 259 235 170 191 208 217 223 218 212 224 227 232
264 279 290 299 311 301 302 316 341 22 64 87 97 120 126 122 129 121 114 119 124 126 121 113 113 105 91 88 114 131 123 155 168 158 175 167 169 334 338 350 198 214 219 223 226 218 229 245 255
266 269 275 281 285 298 319 346 355 51 94 110 120 125 126 116 112 115 115 119 119 114 107 104 102 105 107 92 66 88 76 81 102 101 77 55 50 323 297 290 285 275 260 234 236 236 241 246 256
297 300 295 300 295 287 329 0 360 86 90 113 120 117 107 104 105 108 110 112 117 119 106 108 112 108 102 100 92 82 90 79 75 85 77 77 73 209 247 251 257 264 259 240 235 241 232 236 241
290 285 290 300 302 294 320 342 307 137 145 137 122 109 98 97 104 108 113 116 120 114 112 115 113 108 102 93 82 80 89 93 93 107 116 99 61 304 287 259 242 263 270 254 239 250 244 236 238
289 283 280 281 288 273 261 261 239 165 162 132 121 116 108 100 101 103 104 104 104 109 108 106 106 105 102 91 74 63 56 67 84 106 95 70 34 14 315 286 250 305 282 265 250 240 260 263 258
278 274 266 276 292 285 295 139 124 214 153 128 124 125 122 116 106 104 109 107 101 102 102 96 93 101 105 104 104 105 96 71 69 85 83 60 29 26 341 328 29 313 292 289 295 354 319 299 291
291 294 309 276 299 279 6 126 149 186 163 136 125 126 124 123 114 112 111 107 108 108 105 102 99 94 106 111 127 123 124 149 126 103 94 73 35 46 349 301 13 328 311 314 320 316 292 278 274
306 326 329 333 314 296 91 122 164 158 147 127 126 131 127 119 113 115 117 117 118 119 116 113 110 107 97 89 84 91 105 213 143 125 117 114 65 24 304 326 344 303 301 313 314 307 297 281 261
301 299 303 276 247 247 135 96 118 130 131 130 138 138 132 131 129 132 134 134 132 129 125 130 128 128 122 99 76 97 46 294 144 95 119 117 79 348 306 17 316 326 320 291 280 274 279 296 302
293 299 295 287 263 255 121 128 138 125 136 143 143 144 146 148 148 152 147 143 143 144 150 136 129 134 114 94 351 32 32 298 26 54 108 84 24 327 334 326 317 332 318 309 315 306 291 286 293
298 312 301 296 285 258 230 212 181 156 168 164 160 157 158 151 152 154 154 153 156 158 148 131 134 130 117 107 28 349 348 360 6 3 36 26 334 300 290 289 305 313 311 311 309 325 318 300 292
300 328 334 348 332 315 285 266 159 166 182 177 175 170 161 157 157 159 158 159 162 157 146 141 135 131 124 65 42 357 358 356 0 3 1 347 300 270 256 263 283 310 301 311 321 319 311 305 298
291 311 344 18 359 296 250 231 161 178 186 174 173 170 163 164 162 160 161 160 163 160 151 146 139 140 137 122 30 22 2 351 338 330 324 324 314 308 329 338 27 339 321 322 317 310 300 289 293
274 284 300 327 246 250 233 216 142 167 173 166 167 168 167 165 165 165 164 164 164 165 153 144 141 142 149 159 73 6 351 319 298 306 335 341 331 344 26 17 3 332 318 305 297 295 288 287 285
264 262 269 284 268 214 197 136 134 146 141 148 152 158 163 169 171 169 171 169 172 164 150 143 140 147 156 168 128 15 325 306 346 20 356 332 329 343 358 347 328 310 301 300 307 306 293 285 282
276 275 279 282 305 308 142 129 135 139 148 152 156 162 168 169 170 174 175 170 161 153 152 147 141 141 142 146 126 230 218 314 352 345 315 322 347 327 351 342 327 315 308 302 300 289 289 287 281
269 287 292 297 308 329 3 131 151 163 171 168 168 168 167 169 172 171 163 151 145 144 138 131 132 133 136 168 255 296 40 300 315 308 320 318 313 314 313 308 307 305 301 296 292 290 287 293 288
273 273 294 307 314 334 316 15 149 173 171 177 177 172 170 174 171 161 149 143 146 150 145 144 147 152 169 193 194 289 281 308 314 290 292 305 311 310 302 299 299 298 292 286 283 283 283 282 281
284 273 280 293 314 318 75 118 140 166 167 179 175 169 168 172 169 158 150 148 155 154 150 153 159 169 178 181 188 221 253 295 304 308 321 316 304 298 300 302 300 295 292 289 284 284 288 289 287
Height
1503 1502 1502 1504 1501 1498 1497 1480 1465 1463 1461 1461 1462 1464 1471 1476 1483 1497 1499 1500 1501 1503 1508 1513 1516 1519 1522 1525 1528 1530 1533 1535 1537 1539 1540 1542 1543 1544 1545 1547 1548 1549 1550 1551 1552 1553 1554 1554 1555
1502 1503 1505 1502 1497 1503 1499 1482 1472 1465 1463 1463 1464 1467 1474 1480 1486 1492 1498 1501 1501 1505 1509 1513 1517 1520 1523 1526 1529 1532 1534 1536 1538 1540 1541 1543 1544 1545 1547 1548 1549 1550 1551 1552 1553 1554 1555 1556 1557
1502 1504 1504 1492 1488 1493 1489 1476 1471 1465 1463 1463 1465 1468 1476 1483 1488 1492 1498 1501 1503 1507 1510 1514 1518 1521 1524 1527 1530 1533 1535 1537 1539 1541 1542 1544 1545 1547 1548 1549 1550 1551 1552 1553 1554 1555 1556 1557 1558
1504 1503 1498 1488 1484 1474 1472 1470 1469 1465 1464 1464 1467 1473 1481 1485 1489 1493 1498 1502 1505 1508 1511 1515 1519 1522 1525 1528 1531 1534 1536 1538 1540 1542 1543 1545 1546 1548 1549 1550 1551 1552 1553 1554 1555 1556 1557 1558 1559
1505 1499 1490 1485 1477 1467 1466 1468 1469 1466 1466 1468 1469 1478 1485 1489 1492 1495 1499 1502 1506 1509 1512 1516 1520 1523 1526 1529 1532 1534 1537 1539 1540 1542 1544 1545 1547 1548 1549 1551 1552 1553 1554 1555 1556 1557 1558 1559 1560
1503 1493 1490 1484 1473 1466 1465 1467 1468 1469 1469 1472 1474 1479 1489 1492 1495 1497 1500 1503 1506 1509 1512 1517 1520 1524 1527 1530 1532 1535 1537 1539 1541 1543 1544 1546 1547 1549 1550 1551 1552 1553 1554 1555 1556 1557 1558 1559 1561
1501 1491 1486 1478 1472 1467 1464 1467 1469 1470 1474 1475 1479 1483 1491 1492 1496 1499 1502 1505 1507 1510 1513 1517 1521 1525 1527 1530 1533 1535 1537 1539 1541 1543 1544 1546 1547 1549 1550 1551 1553 1554 1555 1556 1556 1557 1558 1559 1561
1497 1492 1485 1475 1471 1468 1465 1468 1471 1472 1475 1478 1478 1483 1492 1495 1497 1501 1504 1507 1508 1511 1515 1519 1522 1525 1528 1531 1533 1535 1538 1539 1541 1543 1544 1546 1547 1549 1550 1551 1552 1553 1554 1555 1556 1557 1558 1559 1560
1495 1494 1488 1476 1471 1468 1467 1469 1472 1474 1477 1479 1482 1485 1491 1494 1500 1502 1505 1508 1510 1514 1517 1521 1523 1525 1528 1531 1533 1535 1537 1539 1540 1542 1544 1545 1547 1548 1550 1551 1552 1553 1554 1555 1556 1557 1557 1558 1559
1490 1489 1481 1473 1471 1470 1471 1472 1473 1474 1477 1479 1485 1490 1492 1496 1499 1503 1505 1508 1512 1515 1519 1522 1524 1526 1530 1532 1533 1535 1537 1539 1540 1541 1543 1544 1546 1548 1549 1550 1551 1552 1553 1554 1554 1555 1556 1557 1558
1484 1482 1478 1474 1473 1474 1473 1475 1476 1477 1481 1485 1486 1491 1494 1496 1498 1502 1506 1509 1512 1516 1519 1521 1524 1526 1530 1532 1534 1536 1537 1538 1539 1540 1541 1543 1544 1546 1547 1548 1549 1550 1551 1552 1553 1553 1554 1555 1556
1482 1480 1478 1477 1476 1476 1476 1477 1478 1481 1485 1488 1489 1493 1495 1498 1498 1501 1505 1509 1513 1516 1519 1521 1523 1526 1528 1530 1533 1535 1536 1537 1538 1539 1540 1541 1543 1544 1545 1547 1547 1548 1549 1550 1551 1552 1553 1554 1555
1480 1478 1477 1477 1476 1476 1478 1480 1481 1486 1489 1490 1491 1493 1496 1496 1499 1501 1506 1509 1512 1517 1519 1521 1523 1525 1528 1529 1531 1533 1535 1536 1537 1537 1538 1540 1541 1542 1543 1544 1545 1546 1547 1548 1549 1550 1550 1551 1552
1479 1477 1476 1476 1475 1476 1478 1482 1486 1488 1490 1492 1493 1494 1497 1499 1501 1503 1508 1510 1514 1517 1519 1521 1523 1525 1527 1528 1530 1532 1533 1534 1535 1536 1536 1537 1539 1540 1541 1541 1543 1544 1544 1545 1546 1547 1547 1548 1549
1480 1479 1478 1478 1478 1479 1478 1486 1487 1488 1491 1493 1495 1497 1499 1501 1503 1505 1509 1512 1515 1518 1519 1522 1524 1525 1527 1528 1530 1531 1532 1533 1534 1535 1536 1536 1537 1538 1539 1539 1540 1541 1542 1543 1543 1544 1544 1545 1545
1480 1481 1485 1481 1479 1480 1482 1494 1489 1488 1492 1492 1495 1498 1501 1503 1506 1508 1511 1514 1516 1518 1520 1523 1525 1526 1527 1528 1529 1531 1532 1533 1534 1534 1535 1535 1536 1537 1537 1538 1539 1539 1540 1540 1541 1541 1541 1542 1542
1483 1488 1488 1485 1478 1478 1480 1490 1489 1489 1492 1493 1496 1499 1502 1505 1507 1509 1512 1515 1517 1519 1522 1524 1525 1526 1527 1528 1530 1531 1532 1533 1534 1534 1534 1534 1535 1535 1536 1536 1537 1537 1538 1538 1539 1538 1538 1538 1538
1486 1482 1483 1486 1477 1477 1481 1488 1487 1488 1490 1492 1496 1500 1504 1506 1509 1511 1513 1516 1518 1520 1522 1524 1525 1527 1528 1529 1530 1531 1532 1533 1533 1533 1533 1533 1533 1534 1534 1535 1535 1535 1535 1536 1536 1536 1536 1536 1536
1473 1478 1483 1483 1476 1478 1481 1485 1485 1487 1490 1492 1496 1501 1505 1507 1510 1512 1514 1517 1519 1521 1522 1524 1526 1527 1529 1529 1530 1531 1532 1533 1533 1533 1532 1532 1532 1532 1533 1533 1533 1533 1533 1533 1533 1533 1533 1533 1533
1472 1479 1483 1481 1475 1476 1481 1485 1484 1487 1491 1493 1497 1501 1505 1509 1512 1514 1516 1517 1519 1521 1523 1524 1525 1527 1529 1529 1530 1531 1532 1532 1533 1533 1532 1531 1531 1531 1532 1531 1531 1531 1531 1531 1531 1530 1530 1530 1530
1472 1476 1478 1478 1473 1473 1482 1493 1490 1490 1492 1494 1497 1500 1504 1508 1511 1514 1516 1518 1519 1521 1523 1525 1526 1528 1529 1530 1531 1531 1532 1532 1532 1532 1531 1530 1530 1530 1530 1529 1529 1529 1528 1529 1528 1528 1527 1527 1527
1475 1469 1471 1474 1480 1486 1486 1504 1496 1491 1493 1494 1497 1500 1503 1506 1510 1512 1515 1516 1519 1521 1522 1524 1526 1527 1528 1529 1530 1530 1531 1531 1531 1530 1530 1529 1528 1528 1528 1527 1527 1526 1526 1526 1526 1525 1524 1524 1524
1469 1467 1471 1479 1488 1493 1492 1498 1498 1492 1493 1493 1495 1498 1501 1505 1508 1511 1514 1516 1519 1521 1523 1524 1525 1527 1527 1528 1528 1528 1529 1529 1528 1528 1528 1527 1527 1526 1526 1525 1524 1523 1523 1523 1522 1522 1521 1521 1521
1463 1469 1477 1488 1503 1514 1501 1500 1502 1490 1487 1488 1492 1496 1500 1504 1507 1510 1513 1516 1519 1521 1522 1524 1524 1526 1526 1527 1527 1527 1526 1526 1526 1525 1525 1525 1525 1524 1524 1523 1521 1520 1520 1519 1519 1518 1518 1518 1518
1465 1479 1499 1515 1522 1514 1491 1492 1493 1481 1480 1483 1488 1493 1498 1502 1506 1509 1513 1515 1518 1520 1522 1523 1524 1524 1525 1525 1525 1525 1525 1524 1524 1523 1523 1523 1523 1522 1521 1520 1518 1518 1517 1516 1516 1515 1515 1514 1514
1465 1471 1493 1506 1507 1499 1487 1492 1485 1476 1478 1482 1487 1491 1496 1500 1504 1508 1511 1513 1516 1519 1521 1522 1523 1523 1524 1524 1524 1523 1523 1522 1522 1521 1520 1520 1520 1519 1518 1517 1516 1515 1514 1513 1512 1511 1511 1511 1510
1464 1465 1460 1473 1482 1492 1488 1484 1479 1475 1478 1481 1486 1490 1494 1498 1502 1506 1509 1512 1515 1517 1519 1520 1521 1522 1522 1522 1522 1521 1521 1520 1520 1519 1518 1518 1517 1516 1515 1513 1512 1511 1510 1509 1508 1508 1507 1507 1506
1456 1456 1461 1472 1488 1503 1498 1490 1487 1480 1479 1479 1483 1487 1492 1496 1500 1504 1507 1510 1513 1516 1517 1519 1519 1520 1520 1521 1520 1521 1519 1519 1518 1517 1516 1515 1514 1512 1511 1510 1509 1508 1507 1506 1505 1504 1503 1503 1502
1462 1461 1463 1465 1470 1494 1513 1500 1473 1473 1475 1477 1479 1484 1489 1494 1498 1502 1505 1509 1512 1514 1516 1517 1518 1518 1519 1519 1518 1518 1517 1517 1516 1515 1514 1512 1511 1510 1508 1507 1506 1504 1503 1502 1501 1500 1500 1499 1498
1460 1461 1462 1476 1478 1474 1488 1495 1466 1469 1471 1474 1476 1481 1486 1491 1495 1499 1503 1507 1510 1513 1514 1515 1516 1517 1517 1517 1516 1516 1515 1515 1514 1513 1511 1510 1508 1507 1505 1504 1502 1501 1500 1499 1498 1497 1496 1495 1494